Regional Weather Roundup
Issued by NWS Binghamton, NY

Home | Current Version | Previous Version | Text Only | Print | Product List | Glossary On
Versions: 1 2 3 4 5 6 7 8 9 10 11 12 13 14 15 16 17 18 19 20 21 22 23 24 25 26 27 28 29 30 31 32 33 34 35 36 37 38 39 40 41 42 43 44 45 46 47 48 49 50
000
ASUS41 KBGM 160210
RWRBGM
RWRBGM
BINGHAMTON REGIONAL WEATHER ROUNDUP
NATIONAL WEATHER SERVICE BINGHAMTON NY
1000 PM EDT MON SEP 15 2014

Note: "fair" indicates few or no clouds below 12,000 feet with no
significant weather and/or obstructions to visibility.

* = Station(s) that does not report precipitation, such as rain,
snow, etc, also no thunder or fog.

!NYZ009-015>018-022>025-036-037-044>046-055>057-062-160300
...CENTRAL NEW YORK...

CITY           SKY/WX    TMP DP  RH WIND       PRES   REMARKS
BINGHAMTON     MOCLDY    57  47  69 SW6       30.08F
CORTLAND       CLOUDY    59  50  72 CALM      30.07F
DANSVILLE      CLOUDY    56  54  93 CALM      30.08F
ELMIRA         CLOUDY    61  50  67 S5        30.05F
ITHACA         LGT RAIN  59  52  77 W7        30.08S
HAMILTON       CLOUDY    55  52  88 CALM      30.07S
MONTICELLO     PTCLDY    54  48  82 SW5       30.12S
NORWICH        CLOUDY    54  52  94 CALM      30.09S
PENN YAN       LGT RAIN  56  52  86 CALM      30.08F
ROME           CLOUDY    57  49  74 SE5       30.08R
SIDNEY         CLOUDY    55  54  94 CALM      30.08F
SYRACUSE       LGT RAIN  58  54  86 CALM      30.07R
$$

!PAZ038>040-043-044-047-048-072-160300
...NORTHEAST PENNSYLVANIA...

CITY           SKY/WX    TMP DP  RH WIND       PRES   REMARKS
HAZLETON       PTCLDY    50  48  93 CALM      30.14S
SCRANTON       PTCLDY    54  47  77 E6        30.09F
TOWANDA*       CLEAR     54  52  94 CALM      30.08F
$$
&&
KEY
WCI = WIND CHILL INDEX
VSB = VISIBILITY
HX  = HEAT INDEX
$$


USA.gov is the U.S. government's official web portal to all federal, state and local government web resources and services.